• Join FlightAware (Why Join?)
  • Login
  • US Flag 
01:00AM EDT


 

Airport Tracker/Info


-or-


 

Live Flight TrackerFlight Track Log ✈ OPT332 ✈ 16-Nov-2013 ✈ KSAF - KDRO

Flight Track Log - Related Links

Times and Time Zones

All times are in EST time to prevent confusion due to time zone crossing. See the OPT332 flight status page for this flight to view local times or setup timezone preferences in your user account.

Time Position Orientation Groundspeed Altitude Reporting Facility
EST Latitude Longitude Course Direction KTS MPH feet Rate Location/Type
01:53PM 35.6042 -106.1058 270° West 151 174 8,100  Level Albuquerque Center
01:54PM 35.5847 -106.1747 251° West 201 231 12,500 4,320 Climbing Albuquerque Center
01:55PM 35.6000 -106.2386 286° West 232 267 17,000 2,640 Climbing Albuquerque Center
01:56PM 35.6597 -106.2931 323° Northwest 261 300 18,000 420 Climbing Albuquerque Center
01:57PM 35.7286 -106.3594 322° Northwest 302 348 17,900 -60 Descending Albuquerque Center
01:58PM 35.8698 -106.3574 270° West  Level Estimated
01:58PM 35.7939 -106.4225 322° Northwest 302 348 17,900  Level Albuquerque Center
01:59PM 35.8594 -106.4858 322° Northwest 301 346 17,900  Level Albuquerque Center
02:00PM 35.9375 -106.5603 322° Northwest 294 338 17,900  Level Albuquerque Center
02:01PM 35.9978 -106.6192 322° Northwest 291 335 17,900  Level Albuquerque Center
02:02PM 36.0683 -106.6875 322° Northwest 290 334 17,900  Level Albuquerque Center
02:03PM 36.1308 -106.7467 323° Northwest 293 337 17,900  Level Albuquerque Center
02:04PM 36.1928 -106.8075 322° Northwest 297 342 17,900 -60 Level Albuquerque Center
02:05PM 36.2639 -106.8761 322° Northwest 292 336 17,800 -60 Descending Albuquerque Center
02:06PM 36.3236 -106.9353 321° Northwest 290 334 17,800  Level Albuquerque Center
02:07PM 36.3939 -107.0036 322° Northwest 288 331 17,800  Level Albuquerque Center
02:08PM 36.4511 -107.0583 322° Northwest 278 320 17,800  Level Albuquerque Center
02:09PM 36.5114 -107.1200 321° Northwest 260 299 17,800  Level Albuquerque Center
02:10PM 36.5597 -107.1833 314° West 262 302 17,900 180 Climbing Albuquerque Center
02:11PM 36.6042 -107.2625 305° West 254 292 18,200 120 Climbing Albuquerque Center
02:13PM 36.6536 -107.3525 304° West 249 287 18,200  Level Denver Center
02:14PM 36.6914 -107.4194 305° West 248 285 18,200 -300 Level Denver Center
02:15PM 36.7394 -107.5083 304° West 244 281 17,600 -900 Descending Denver Center
02:16PM 36.7722 -107.5681 304° West 223 257 16,400 -1,500 Descending Denver Center
02:17PM 36.8097 -107.6353 305° West 217 250 14,600 -1,680 Descending Denver Center
02:18PM 36.8419 -107.6956 304° West 212 244 13,000 -1,620 Descending Denver Center
02:19PM 36.8728 -107.7517 304° West 201 231 11,400 -1,500 Descending Denver Center
02:20PM 36.9022 -107.8067 304° West 192 221 10,000 -780 Descending Denver Center
02:21PM 36.9325 -107.8606 305° West 191 220 9,900 -60 Descending Denver Center
02:22PM 36.9786 -107.9075 321° Northwest 194 223 9,900 -240 Level Denver Center
02:23PM 37.0272 -107.8717 30° Northeast 209 241 9,400 -660 Descending Denver Center
02:24PM 37.0628 -107.8386 37° Northeast 169 194 8,500 -1,020 Descending Denver Center
02:25PM 37.1058 -107.7964 38° Northeast 162 186 7,400 -600 Descending Denver Center
02:26PM 37.1233 -107.7514 64° Northeast 151 174 7,300 -120 Descending Denver Center